Location: Gleizolles
(44.4833°N, 6.7667°E)
Time: 16:31:48
(UTC+00:00)

Transit 2A - Pass Details

Date: 02 July 2024
Orbit: 591 x 960 km, 66.7° (Epoch: 16 July)

Event Time Altitude Azimuth Distance (km) Brightness Sun altitude
Rises 19:51:42 0° 331° (NNW) 3,539 11.0 -5.2°
Reaches altitude 10° 19:54:22 10° 339° (NNW) 2,633 9.9 -5.6°
Maximum altitude 20:00:09 39° 48° (NE) 1,391 7.3 -6.3°
Drops below altitude 10° 20:06:04 10° 116° (ESE) 2,689 8.2 -7.1°
Enters shadow 20:06:41 - 118° (ESE) 2,895 8.3 -7.2°
